Location: Dennis Manor
(64.8292°N, 147.5397°W)
Time: 09:00:50
(UTC+00:00)

Envisat - Pass Details

Date: 28 October 2020
Orbit: 764 x 766 km, 98.1° (Epoch: 05 December)

Event Time Altitude Azimuth Distance (km) Brightness Sun altitude
Rises 02:41:47 0° 170° (S) 3,231 6.3 -6.5°
Reaches altitude 10° 02:44:06 10° 173° (S) 2,308 5.6 -6.8°
Maximum altitude 02:49:09 65° 255° (WSW) 849 3.6 -7.3°
Drops below altitude 10° 02:54:15 10° 338° (NNW) 2,321 5.6 -7.8°
Sets 02:56:36 0° 341° (NNW) 3,251 6.3 -8.1°
